Time,TemperatureF,DewpointF,PressureIn,WindDirection,WindDirectionDegrees,WindSpeedMPH,WindSpeedGustMPH,Humidity,HourlyPrecipIn,Conditions,Clouds,dailyrainin,SoftwareType,DateUTC
2013-05-25 00:06:00,52.3,42.9,29.85,North,0,0.0,-999.0,70,0.00,,,0.00,open2300 v1.10,2013-05-25 07:06:00,
2013-05-25 00:21:00,52.3,42.9,29.85,North,0,0.0,-999.0,70,0.00,,,0.00,open2300 v1.10,2013-05-25 07:21:00,
2013-05-25 00:36:00,52.3,42.9,29.85,North,0,0.0,-999.0,70,0.00,,,0.00,open2300 v1.10,2013-05-25 07:36:00,
2013-05-25 00:51:00,52.2,43.1,29.85,North,0,0.0,-999.0,71,0.00,,,0.00,open2300 v1.10,2013-05-25 07:51:00,
2013-05-25 01:07:00,52.0,42.9,29.85,North,0,0.0,-999.0,71,0.00,,,0.00,open2300 v1.10,2013-05-25 08:07:00,
2013-05-25 01:21:00,51.8,43.1,29.85,North,0,0.0,-999.0,72,0.00,,,0.00,open2300 v1.10,2013-05-25 08:21:00,
2013-05-25 01:36:00,51.6,42.9,29.85,North,0,0.0,-999.0,72,0.00,,,0.00,open2300 v1.10,2013-05-25 08:36:00,
2013-05-25 01:51:00,51.6,42.9,29.85,North,0,0.0,-999.0,72,0.00,,,0.00,open2300 v1.10,2013-05-25 08:51:00,
2013-05-25 02:07:00,51.4,43.1,29.84,North,0,0.0,-999.0,73,0.00,,,0.00,open2300 v1.10,2013-05-25 09:07:00,
2013-05-25 02:21:00,51.3,42.9,29.84,North,0,0.0,-999.0,73,0.00,,,0.00,open2300 v1.10,2013-05-25 09:21:00,
2013-05-25 02:36:00,51.1,43.1,29.84,North,0,0.0,-999.0,74,0.00,,,0.00,open2300 v1.10,2013-05-25 09:36:00,
2013-05-25 02:51:00,51.1,43.1,29.85,North,0,0.0,-999.0,74,0.00,,,0.00,open2300 v1.10,2013-05-25 09:51:00,
2013-05-25 03:07:00,51.1,43.1,29.85,North,0,0.0,-999.0,74,0.00,,,0.00,open2300 v1.10,2013-05-25 10:07:00,
2013-05-25 03:21:00,51.1,43.1,29.85,North,0,0.0,-999.0,74,0.00,,,0.00,open2300 v1.10,2013-05-25 10:21:00,
2013-05-25 03:36:00,51.1,43.1,29.84,North,0,0.0,-999.0,74,0.00,,,0.00,open2300 v1.10,2013-05-25 10:36:00,
2013-05-25 03:51:00,51.1,43.1,29.84,North,0,0.0,-999.0,74,0.00,,,0.00,open2300 v1.10,2013-05-25 10:51:00,
2013-05-25 04:07:00,50.9,42.9,29.84,North,0,0.0,-999.0,74,0.00,,,0.00,open2300 v1.10,2013-05-25 11:07:00,
2013-05-25 04:21:00,50.9,42.9,29.84,North,0,0.0,-999.0,74,0.00,,,0.00,open2300 v1.10,2013-05-25 11:21:00,
2013-05-25 04:36:00,50.9,42.9,29.84,North,0,0.0,-999.0,74,0.00,,,0.00,open2300 v1.10,2013-05-25 11:36:00,
2013-05-25 04:51:00,50.9,42.9,29.84,North,0,0.0,-999.0,74,0.00,,,0.00,open2300 v1.10,2013-05-25 11:51:00,
2013-05-25 05:07:00,50.9,42.9,29.85,North,0,0.0,-999.0,74,0.00,,,0.00,open2300 v1.10,2013-05-25 12:07:00,
2013-05-25 05:21:00,50.9,42.9,29.85,North,0,0.0,-999.0,74,0.00,,,0.00,open2300 v1.10,2013-05-25 12:21:00,
2013-05-25 05:36:00,50.7,42.7,29.85,North,0,0.0,-999.0,74,0.00,,,0.00,open2300 v1.10,2013-05-25 12:36:00,
2013-05-25 05:51:00,50.7,43.1,29.85,North,0,0.0,-999.0,75,0.00,,,0.00,open2300 v1.10,2013-05-25 12:51:00,
2013-05-25 06:07:00,50.7,42.7,29.86,North,0,0.0,-999.0,74,0.00,,,0.00,open2300 v1.10,2013-05-25 13:07:00,
2013-05-25 06:21:00,50.7,43.1,29.86,North,0,0.0,-999.0,75,0.00,,,0.00,open2300 v1.10,2013-05-25 13:21:00,
2013-05-25 06:36:00,50.9,43.2,29.86,North,0,0.0,-999.0,75,0.00,,,0.00,open2300 v1.10,2013-05-25 13:36:00,
2013-05-25 06:51:00,51.1,43.4,29.86,North,0,0.0,-999.0,75,0.00,,,0.00,open2300 v1.10,2013-05-25 13:51:00,
2013-05-25 07:07:00,51.4,43.8,29.86,North,0,0.0,-999.0,75,0.00,,,0.00,open2300 v1.10,2013-05-25 14:07:00,
2013-05-25 07:21:00,51.6,44.0,29.86,North,0,0.0,-999.0,75,0.00,,,0.00,open2300 v1.10,2013-05-25 14:21:00,
2013-05-25 07:36:00,52.0,44.3,29.86,North,0,0.0,-999.0,75,0.00,,,0.00,open2300 v1.10,2013-05-25 14:36:00,
2013-05-25 07:51:00,51.8,43.8,29.86,North,0,0.0,-999.0,74,0.00,,,0.00,open2300 v1.10,2013-05-25 14:51:00,
2013-05-25 08:06:00,52.3,44.3,29.86,North,0,0.0,-999.0,74,0.00,,,0.00,open2300 v1.10,2013-05-25 15:06:00,
2013-05-25 08:21:00,52.7,44.7,29.87,North,0,0.0,-999.0,74,0.00,,,0.00,open2300 v1.10,2013-05-25 15:21:00,
2013-05-25 08:36:00,53.2,44.8,29.87,North,0,0.0,-999.0,73,0.00,,,0.00,open2300 v1.10,2013-05-25 15:36:00,
2013-05-25 08:51:00,53.6,45.1,29.87,North,0,0.0,-999.0,73,0.00,,,0.00,open2300 v1.10,2013-05-25 15:51:00,
2013-05-25 09:06:00,54.1,45.3,29.88,North,0,0.0,-999.0,72,0.00,,,0.00,open2300 v1.10,2013-05-25 16:06:00,
2013-05-25 09:21:00,54.3,45.5,29.88,North,0,0.0,-999.0,72,0.00,,,0.00,open2300 v1.10,2013-05-25 16:21:00,
2013-05-25 09:36:00,54.9,45.7,29.88,North,0,0.0,-999.0,71,0.00,,,0.00,open2300 v1.10,2013-05-25 16:36:00,
2013-05-25 09:51:00,55.4,45.9,29.88,North,0,0.0,-999.0,70,0.00,,,0.00,open2300 v1.10,2013-05-25 16:51:00,
2013-05-25 10:06:00,55.9,46.3,29.88,North,0,0.0,-999.0,70,0.00,,,0.00,open2300 v1.10,2013-05-25 17:06:00,
2013-05-25 10:21:00,56.1,46.1,29.88,North,0,0.0,-999.0,69,0.00,,,0.00,open2300 v1.10,2013-05-25 17:21:00,
2013-05-25 10:36:00,56.5,46.0,29.88,North,0,0.0,-999.0,68,0.00,,,0.00,open2300 v1.10,2013-05-25 17:36:00,
2013-05-25 10:51:00,57.0,46.1,29.89,North,0,0.0,-999.0,67,0.00,,,0.00,open2300 v1.10,2013-05-25 17:51:00,
2013-05-25 11:06:00,57.4,46.5,29.89,North,0,0.0,-999.0,67,0.00,,,0.00,open2300 v1.10,2013-05-25 18:06:00,
2013-05-25 11:21:00,57.7,46.4,29.89,North,0,0.0,-999.0,66,0.00,,,0.00,open2300 v1.10,2013-05-25 18:21:00,
2013-05-25 11:36:00,57.9,46.2,29.89,North,0,0.0,-999.0,65,0.00,,,0.00,open2300 v1.10,2013-05-25 18:36:00,
2013-05-25 11:51:00,57.9,46.2,29.90,North,0,0.0,-999.0,65,0.00,,,0.00,open2300 v1.10,2013-05-25 18:51:00,
2013-05-25 12:06:00,58.5,46.7,29.90,North,0,0.0,-999.0,65,0.00,,,0.00,open2300 v1.10,2013-05-25 19:06:00,
2013-05-25 12:21:00,58.3,46.1,29.90,North,0,0.0,-999.0,64,0.00,,,0.00,open2300 v1.10,2013-05-25 19:21:00,
2013-05-25 12:36:00,58.3,46.1,29.91,North,0,0.0,-999.0,64,0.00,,,0.00,open2300 v1.10,2013-05-25 19:36:00,
2013-05-25 12:51:00,58.3,46.1,29.91,North,0,0.0,-999.0,64,0.00,,,0.00,open2300 v1.10,2013-05-25 19:51:00,
2013-05-25 13:06:00,58.5,46.3,29.91,North,0,0.0,-999.0,64,0.00,,,0.00,open2300 v1.10,2013-05-25 20:06:00,
2013-05-25 13:21:00,58.6,46.5,29.91,North,0,0.0,-999.0,64,0.00,,,0.00,open2300 v1.10,2013-05-25 20:21:00,
2013-05-25 13:36:00,58.3,46.1,29.91,North,0,0.0,-999.0,64,0.00,,,0.00,open2300 v1.10,2013-05-25 20:36:00,
2013-05-25 13:51:00,57.9,45.8,29.91,North,0,0.0,-999.0,64,0.00,,,0.00,open2300 v1.10,2013-05-25 20:51:00,
2013-05-25 14:06:00,57.9,46.2,29.91,North,0,0.0,-999.0,65,0.00,,,0.00,open2300 v1.10,2013-05-25 21:06:00,
2013-05-25 14:21:00,57.7,45.6,29.91,North,0,0.0,-999.0,64,0.00,,,0.00,open2300 v1.10,2013-05-25 21:21:00,
2013-05-25 14:36:00,57.4,45.7,29.91,North,0,0.0,-999.0,65,0.00,,,0.00,open2300 v1.10,2013-05-25 21:36:00,
2013-05-25 14:51:00,57.9,46.2,29.91,North,0,0.0,-999.0,65,0.00,,,0.00,open2300 v1.10,2013-05-25 21:51:00,
2013-05-25 15:06:00,58.3,46.1,29.91,North,0,0.0,-999.0,64,0.00,,,0.00,open2300 v1.10,2013-05-25 22:06:00,
2013-05-25 15:21:00,58.6,46.5,29.90,North,0,0.0,-999.0,64,0.00,,,0.00,open2300 v1.10,2013-05-25 22:21:00,
2013-05-25 15:36:00,58.8,46.6,29.91,North,0,0.0,-999.0,64,0.00,,,0.00,open2300 v1.10,2013-05-25 22:36:00,
2013-05-25 15:51:00,59.5,46.9,29.90,North,0,0.0,-999.0,63,0.00,,,0.00,open2300 v1.10,2013-05-25 22:51:00,
2013-05-25 16:06:00,59.7,47.1,29.90,North,0,0.0,-999.0,63,0.00,,,0.00,open2300 v1.10,2013-05-25 23:06:00,
2013-05-25 16:21:00,59.7,47.1,29.91,North,0,0.0,-999.0,63,0.00,,,0.00,open2300 v1.10,2013-05-25 23:21:00,
2013-05-25 16:36:00,60.1,47.5,29.91,North,0,0.0,-999.0,63,0.00,,,0.00,open2300 v1.10,2013-05-25 23:36:00,
2013-05-25 16:51:00,60.6,48.0,29.91,North,0,0.0,-999.0,63,0.00,,,0.00,open2300 v1.10,2013-05-25 23:51:00,
2013-05-25 17:06:00,61.2,48.5,29.90,North,0,0.0,-999.0,63,0.00,,,0.00,open2300 v1.10,2013-05-26 00:06:00,
2013-05-25 17:21:00,61.3,48.2,29.91,North,0,0.0,-999.0,62,0.00,,,0.00,open2300 v1.10,2013-05-26 00:21:00,
2013-05-25 17:36:00,60.6,47.6,29.90,North,0,0.0,-999.0,62,0.00,,,0.00,open2300 v1.10,2013-05-26 00:36:00,
2013-05-25 17:51:00,60.6,48.0,29.90,North,0,0.0,-999.0,63,0.00,,,0.00,open2300 v1.10,2013-05-26 00:51:00,
2013-05-25 18:06:00,60.6,48.0,29.91,North,0,0.0,-999.0,63,0.00,,,0.00,open2300 v1.10,2013-05-26 01:06:00,
2013-05-25 18:21:00,61.2,48.5,29.90,North,0,0.0,-999.0,63,0.00,,,0.00,open2300 v1.10,2013-05-26 01:21:00,
2013-05-25 18:36:00,61.5,48.8,29.91,North,0,0.0,-999.0,63,0.00,,,0.00,open2300 v1.10,2013-05-26 01:36:00,
2013-05-25 18:51:00,61.9,49.2,29.90,North,0,0.0,-999.0,63,0.00,,,0.00,open2300 v1.10,2013-05-26 01:51:00,
2013-05-25 19:06:00,61.9,49.2,29.89,North,0,0.0,-999.0,63,0.00,,,0.00,open2300 v1.10,2013-05-26 02:06:00,
2013-05-25 19:21:00,61.0,48.3,29.88,North,0,0.0,-999.0,63,0.00,,,0.00,open2300 v1.10,2013-05-26 02:21:00,
2013-05-25 19:36:00,60.4,48.7,29.88,North,0,0.0,-999.0,65,0.00,,,0.00,open2300 v1.10,2013-05-26 02:36:00,
2013-05-25 19:51:00,59.2,47.4,29.88,North,0,0.0,-999.0,65,0.00,,,0.00,open2300 v1.10,2013-05-26 02:51:00,
2013-05-25 20:06:00,57.9,47.4,29.88,North,0,0.0,-999.0,68,0.00,,,0.00,open2300 v1.10,2013-05-26 03:06:00,
2013-05-25 20:21:00,56.5,46.8,29.88,North,0,0.0,-999.0,70,0.00,,,0.00,open2300 v1.10,2013-05-26 03:21:00,
2013-05-25 20:36:00,55.4,46.5,29.89,North,0,0.0,-999.0,72,0.00,,,0.00,open2300 v1.10,2013-05-26 03:36:00,
2013-05-25 20:51:00,54.5,46.0,29.89,North,0,0.0,-999.0,73,0.00,,,0.00,open2300 v1.10,2013-05-26 03:51:00,
2013-05-25 21:06:00,53.8,45.7,29.90,North,0,0.0,-999.0,74,0.00,,,0.00,open2300 v1.10,2013-05-26 04:06:00,
2013-05-25 21:21:00,53.8,46.0,29.90,North,0,0.0,-999.0,75,0.00,,,0.00,open2300 v1.10,2013-05-26 04:21:00,
2013-05-25 21:36:00,53.8,46.0,29.91,North,0,0.0,-999.0,75,0.00,,,0.00,open2300 v1.10,2013-05-26 04:36:00,
2013-05-25 21:51:00,53.8,46.4,29.91,North,0,0.0,-999.0,76,0.00,,,0.00,open2300 v1.10,2013-05-26 04:51:00,
2013-05-25 22:06:00,53.8,46.4,29.91,North,0,0.0,-999.0,76,0.00,,,0.00,open2300 v1.10,2013-05-26 05:06:00,
2013-05-25 22:21:00,53.8,46.7,29.92,North,0,0.0,-999.0,77,0.00,,,0.00,open2300 v1.10,2013-05-26 05:21:00,
2013-05-25 22:36:00,53.6,46.6,29.92,North,0,0.0,-999.0,77,0.00,,,0.00,open2300 v1.10,2013-05-26 05:36:00,
2013-05-25 22:51:00,53.4,46.8,29.92,North,0,0.0,-999.0,78,0.00,,,0.00,open2300 v1.10,2013-05-26 05:51:00,
2013-05-25 23:06:00,52.9,46.2,29.92,North,0,0.0,-999.0,78,0.00,,,0.00,open2300 v1.10,2013-05-26 06:06:00,
2013-05-25 23:21:00,52.7,46.4,29.92,North,0,0.0,-999.0,79,0.00,,,0.00,open2300 v1.10,2013-05-26 06:21:00,
2013-05-25 23:36:00,52.5,46.6,29.92,North,0,0.0,-999.0,80,0.00,,,0.00,open2300 v1.10,2013-05-26 06:36:00,
2013-05-25 23:51:00,52.3,46.4,29.92,North,0,0.0,-999.0,80,0.00,,,0.00,open2300 v1.10,2013-05-26 06:51:00,